Weather History for Forrest, WE

Change the Weather History Date:

Sunday, January 22, 2012

  Actual Average Record
Temperature  
Mean Temperature 80 °F -  
Max Temperature 99 °F - - ()
Min Temperature 62 °F - - ()
Cooling Degree Days 16    
Growing Degree Days 30 (Base 50)    
Moisture  
Dew Point 60 °F    
Average Humidity 54    
Maximum Humidity 100    
Minimum Humidity 16    
Precipitation  
Precipitation 0.00 in - - ()
Sea Level Pressure  
Sea Level Pressure 29.84 in    
Wind  
Wind Speed 9 mph ()    
Max Wind Speed 21 mph    
Max Gust Speed 30 mph    
T = Trace of Precipitation, MM = Missing Value Source: Averaged Metar Reports

Daily Weather History Graph

Daily Weather History Graph

Search for Another Location

Airport:

Trip Planner

Search our weather history database for the weather conditions in past years. The results will help you decide how hot, cold, wet, or windy it might be!

Date:

Astronomy

Jan. 22, 2012 Rise Set
Actual Time 4:44 AM AWST 6:32 PM AWST
Civil Twilight 4:17 AM AWST 6:59 PM AWST
Nautical Twilight 3:45 AM AWST 7:31 PM AWST
Astronomical Twilight 3:11 AM AWST 8:05 PM AWST
Moon 3:26 AM AWST (1/22) 5:34 PM AWST (1/22)
Length of Visible Light 14h 41m
Length of Day
13h 48m
Waning Crescent, 2% of the Moon is Illuminated
Jan 22
Waning Crescent
Jan 23
New
Jan 31
First Quarter
Feb 8
Full
Feb 15
Last Quarter

Hourly Weather History & Observations

Time (AWST) Temp. Heat Index Dew Point Humidity Pressure Visibility Wind Dir Wind Speed Gust Speed Precip Events Conditions
12:00 AM 65 °F - 65 °F 99% 29.84 in - SE 10.4 mph - -  
12:00 AM 66.2 °F - 64.4 °F 94% 29.86 in - SE 10.4 mph - N/A   Unknown
1:00 AM 64.4 °F - 64.4 °F 100% 29.83 in - ESE 9.2 mph - N/A   Unknown
2:00 AM 64 °F - 63 °F 96% 29.83 in - ESE 8.1 mph - -  
2:00 AM 64.4 °F - 62.6 °F 94% 29.83 in - ESE 8.1 mph - N/A   Unknown
3:00 AM 63 °F - 63 °F 98% 29.83 in - ESE 6.9 mph - -  
3:00 AM 62.6 °F - 62.6 °F 100% 29.83 in - ESE 6.9 mph - N/A   Unknown
4:00 AM 62.6 °F - 62.6 °F 100% 29.86 in - ESE 6.9 mph - N/A   Unknown
5:00 AM 62 °F - 62 °F 99% 29.88 in - SE 6.9 mph - -  
5:00 AM 62.6 °F - 62.6 °F 100% 29.89 in - SE 6.9 mph - N/A   Unknown
6:00 AM 66 °F - 66 °F 98% 29.88 in - East 10.4 mph - -  
6:00 AM 66.2 °F - 66.2 °F 100% 29.89 in - East 10.4 mph - N/A   Unknown
7:00 AM 71.6 °F - 64.4 °F 78% 29.92 in - East 10.4 mph - N/A   Unknown
8:00 AM 79 °F - 64 °F 50% 29.88 in - East 11.5 mph - -  
8:00 AM 78.8 °F - 64.4 °F 61% 29.89 in - East 11.5 mph - N/A   Unknown
9:00 AM 85 °F - 63 °F 37% 29.88 in - East 10.4 mph - -  
9:00 AM 86.0 °F 86.6 °F 62.6 °F 45% 29.89 in - East 10.4 mph - N/A   Unknown
10:00 AM 89.6 °F 88.9 °F 59.0 °F 36% 29.89 in - East 10.4 mph - N/A   Unknown
11:00 AM 94 °F - 58 °F 21% 29.85 in - East 9.2 mph - -  
11:00 AM 93.2 °F 92.6 °F 59.0 °F 32% 29.86 in - East 9.2 mph - N/A   Unknown
12:00 PM 96 °F - 57 °F 18% 29.83 in - ESE 10.4 mph - -  
12:00 PM 95.0 °F 93.7 °F 57.2 °F 28% 29.83 in - ESE 10.4 mph - N/A   Unknown
1:00 PM 96.8 °F 95.8 °F 57.2 °F 27% 29.80 in - SSE 8.1 mph - N/A   Unknown
2:00 PM 99 °F - 57 °F 16% 29.79 in - SW 5.8 mph - -  
2:00 PM 98.6 °F 97.6 °F 57.2 °F 25% 29.80 in - SW 5.8 mph - N/A   Unknown
3:00 PM 98 °F - 56 °F 16% 29.78 in - SE 8.1 mph - -  
3:00 PM 98.6 °F 97.6 °F 57.2 °F 25% 29.80 in - SE 8.1 mph - N/A   Unknown
4:00 PM 98.6 °F 97.2 °F 55.4 °F 24% 29.77 in - SSE 6.9 mph - N/A   Unknown
4:32 PM 96.8 °F 95.8 °F 57.2 °F 27% 29.77 in - SE 17.3 mph - N/A   Unknown
4:33 PM 96.8 °F 95.8 °F 57.2 °F 27% 29.77 in - SE 18.4 mph 29.9 mph N/A   Unknown
5:00 PM 96 °F - 57 °F 18% 29.76 in - SE 20.7 mph - -  
5:00 PM 95.0 °F 93.7 °F 57.2 °F 28% 29.77 in - SE 20.7 mph - N/A   Unknown
6:00 PM 90 °F - 56 °F 22% 29.78 in - SE 20.7 mph - -  
6:00 PM 89.6 °F 87.7 °F 55.4 °F 31% 29.80 in - SE 20.7 mph - N/A   Unknown
7:00 PM 84.2 °F 83.5 °F 57.2 °F 40% 29.83 in - SE 17.3 mph - N/A   Unknown
8:00 PM 78 °F - 60 °F 43% 29.84 in - SE 13.8 mph - -  
8:00 PM 78.8 °F - 59.0 °F 51% 29.86 in - SE 13.8 mph - N/A   Unknown
9:00 PM 75.2 °F - 59.0 °F 57% 29.86 in - ESE 16.1 mph - N/A   Unknown
10:00 PM 73.4 °F - 57.2 °F 57% 29.86 in - SE 10.4 mph - N/A   Unknown
11:00 PM 71 °F - 56 °F 50% 29.83 in - East 10.4 mph - -  
11:00 PM 71.6 °F - 57.2 °F 60% 29.86 in - East 10.4 mph - N/A   Unknown